Home > Weather > Brattleboro > Past weeks

Flag for U.S.A. Weather for the Past 2 Weeks in Brattleboro, Vermont, U.S.A.

Now
23 °F

Passing clouds.


Feels Like: 23 °F
Forecast: 11 / 24 °F
Wind: No wind

Location: Keene / Dillant

Current Time: Feb 11, 2016 at 6:22:06 AM

Latest Report: Feb 11, 2016 at 5:55 AM


Visibility: 10 mi

Pressure: 29.66 "Hg

Humidity: 58%

Dew point: 10 °F

Location of BrattleboroLocation

Historic Weather in Brattleboro — Graph

°F

Brattleboro Temperature Yesterday

Maximum temperature yesterday: 34 °F (at 1:35 PM)
Minimum temperature yesterday: 14 °F (at 4:35 AM)
Average temperature yesterday: 24 °F

High & Low Weather Summary for the Past Weeks

 TemperatureHumidityPressure
High55 °F (Feb 3, 6:35 PM)88% (Feb 3, 7:35 PM)30.37 "Hg (Feb 3, 7:35 PM)
Low9 °F (Feb 6, 6:55 AM)25% (Feb 8, 9:55 AM)29.38 "Hg (Jan 29, 12:35 PM)
Average31 °F65%29.91 "Hg
* Reported Jan 27 5:15 AM — Feb 11 5:15 AM, Brattleboro, Weather by CustomWeather, © 2016

Note: Actual official high and low records may vary slightly from our data, if they occured in-between our weather recording intervals... More about our weather records

Advertising

Brattleboro Weather History for the Previous 24 Hours

 ConditionsComfort  
Time TempWeatherWind HumidityBarometerVisibility
5:15 AM
Thu, Feb 11
23 °FOvercast.No wind63%29.65 "Hg10 mi
4:55 AM23 °FOvercast.No wind63%29.65 "Hg10 mi
4:35 AM21 °FMostly cloudy.No wind68%29.64 "Hg10 mi
4:15 AM21 °FOvercast.No wind74%29.64 "Hg10 mi
3:55 AM18 °FOvercast.3 mph79%29.64 "Hg10 mi
3:35 AM18 °FPassing clouds.No wind79%29.64 "Hg10 mi
3:15 AM18 °FPassing clouds.No wind79%29.63 "Hg10 mi
2:55 AM19 °FPassing clouds.No wind73%29.64 "Hg10 mi
2:35 AM21 °FOvercast.No wind74%29.64 "Hg10 mi
2:15 AM21 °FPassing clouds.No wind80%29.64 "Hg10 mi
1:55 AM21 °FPassing clouds.N/A80%29.64 "Hg10 mi
1:35 AM21 °FOvercast.No wind80%29.64 "Hg10 mi
1:15 AM23 °FPassing clouds.5 mph74%29.64 "Hg10 mi
12:55 AM21 °FPassing clouds.6 mph80%29.64 "Hg10 mi
12:35 AM21 °FPassing clouds.5 mph80%29.64 "Hg10 mi
12:15 AM23 °FOvercast.5 mph80%29.63 "Hg10 mi
11:55 PM
Wed, Feb 10
21 °FMostly cloudy.No wind86%29.64 "Hg10 mi
11:35 PM21 °FPassing clouds.No wind80%29.64 "Hg10 mi
11:15 PM21 °FClear.3 mph80%29.63 "Hg10 mi
10:55 PM21 °FClear.5 mph86%29.63 "Hg10 mi
10:35 PM25 °FClear.3 mph74%29.62 "Hg10 mi
10:15 PM23 °FClear.No wind74%29.62 "Hg10 mi
9:55 PM25 °FPassing clouds.3 mph80%29.62 "Hg10 mi
9:15 PM27 °FPassing clouds.3 mph74%29.62 "Hg10 mi
8:55 PM27 °FPassing clouds.No wind74%29.62 "Hg10 mi
8:35 PM27 °FClear.No wind74%29.61 "Hg10 mi
8:15 PM27 °FPassing clouds.No wind74%29.61 "Hg10 mi
7:55 PM27 °FPassing clouds.5 mph74%29.61 "Hg10 mi
7:35 PM28 °FClear.6 mph69%29.60 "Hg10 mi
6:55 PM28 °FPassing clouds.7 mph69%29.60 "Hg10 mi
6:15 PM30 °FPassing clouds.7 mph69%29.59 "Hg10 mi
5:55 PM30 °FPassing clouds.7 mph69%29.58 "Hg10 mi
5:35 PM32 °FPartly cloudy.6 mph69%29.57 "Hg10 mi
4:35 PM34 °FScattered clouds.3 mph70%29.55 "Hg10 mi
4:15 PM34 °FScattered clouds.No wind70%29.55 "Hg10 mi
3:55 PM34 °FScattered clouds.5 mph70%29.54 "Hg9 mi
3:35 PM34 °FBroken clouds.3 mph70%29.53 "Hg10 mi
3:15 PM34 °FBroken clouds.5 mph70%29.53 "Hg10 mi
2:55 PM34 °FScattered clouds.No wind70%29.52 "Hg10 mi
2:35 PM34 °FScattered clouds.No wind70%29.52 "Hg10 mi
2:15 PM34 °FBroken clouds.No wind65%29.52 "Hg10 mi
1:55 PM34 °FPartly sunny.No wind70%29.52 "Hg10 mi
1:35 PM34 °FPartly sunny.No wind65%29.52 "Hg10 mi
1:15 PM32 °FOvercast.No wind69%29.52 "Hg10 mi
12:55 PM30 °FOvercast.No wind69%29.52 "Hg9 mi
12:35 PM30 °FPartly sunny.No wind69%29.53 "Hg8 mi
12:15 PM28 °FScattered clouds.No wind74%29.54 "Hg8 mi
11:55 AM28 °FScattered clouds.No wind74%29.55 "Hg5 mi
11:35 AM28 °FBroken clouds.3 mph74%29.56 "Hg4 mi
11:15 AM27 °FMostly cloudy.No wind74%29.57 "Hg3 mi
10:55 AM27 °FMostly cloudy.No wind74%29.57 "Hg2 mi
10:35 AM25 °FOvercast.No wind80%29.57 "Hg1 mi
10:15 AM25 °FOvercast.No wind74%29.58 "Hg1 mi
9:55 AM25 °FPartly sunny.No wind74%29.58 "Hg1 mi
9:35 AM23 °FSunny.No wind80%29.58 "Hg1 mi
9:15 AM21 °FSunny.No wind80%29.58 "Hg2 mi
8:55 AM21 °FSunny.No wind80%29.58 "Hg1 mi
8:35 AM19 °FPartly sunny.No wind73%29.58 "Hg1 mi
8:15 AM19 °FOvercast.No wind73%29.58 "Hg1 mi
7:55 AM19 °FOvercast.No wind73%29.58 "Hg2 mi
7:35 AM18 °FMostly cloudy.No wind79%29.58 "Hg2 mi
7:15 AM18 °FPartly sunny.3 mph79%29.58 "Hg7 mi
6:55 AM18 °FMostly cloudy.3 mph73%29.57 "Hg10 mi
6:35 AM16 °FOvercast.No wind79%29.57 "Hg10 mi
6:15 AM16 °FOvercast.No wind79%29.56 "Hg10 mi
Weather by CustomWeather, © 2016

See weather overviewHow to use our weather pages